EST,Max TemperatureF,Mean TemperatureF,Min TemperatureF,Max Dew PointF,MeanDew PointF,Min DewpointF,Max Humidity, Mean Humidity, Min Humidity, Max Sea Level PressureIn, Mean Sea Level PressureIn, Min Sea Level PressureIn, Max VisibilityMiles, Mean VisibilityMiles, Min VisibilityMiles, Max Wind SpeedMPH, Mean Wind SpeedMPH, Max Gust SpeedMPH,PrecipitationIn, CloudCover, Events, WindDirDegrees
2010-11-1,52,39,26,31,27,24,100,67,37,30.49,30.44,30.32,10,10,9,10,5,,0.00,0,,75
2010-11-2,53,38,24,32,26,21,89,66,38,30.52,30.43,30.31,10,10,9,12,4,,0.00,0,,79
2010-11-3,46,34,21,35,27,20,93,77,58,30.29,30.06,29.83,10,8,2,12,2,,0.00,1,,197
2010-11-4,51,39,28,41,36,26,93,80,61,29.83,29.76,29.71,10,10,7,21,5,26,0.01,6,Rain,335
2010-11-5,39,33,26,32,28,24,96,80,55,30.13,29.95,29.83,10,8,1,16,10,23,0.00,5,Snow,322
2010-11-6,41,29,19,27,20,16,100,85,49,30.40,30.24,30.11,10,4,0,9,1,,0.00,1,Fog,280
2010-11-7,57,42,28,26,24,22,75,52,29,30.40,30.27,30.11,10,10,10,17,9,25,0.00,0,,192
2010-11-8,66,52,37,34,30,26,76,53,28,30.09,30.02,29.96,10,10,8,7,4,,0.00,0,,191
2010-11-9,68,52,35,36,33,29,78,54,28,30.08,30.02,29.98,10,10,9,12,5,,0.00,0,,124
2010-11-10,66,52,37,41,37,35,93,67,34,30.26,30.17,30.09,10,7,2,14,8,,0.00,0,,117
2010-11-11,71,55,39,45,40,37,93,65,36,30.39,30.34,30.27,10,8,4,9,5,,0.00,0,,143
2010-11-12,71,58,45,43,38,33,76,55,32,30.40,30.32,30.21,10,8,4,8,4,,0.00,1,,137
2010-11-13,64,53,41,54,43,34,100,77,42,30.18,29.98,29.89,10,9,2,20,11,28,0.05,6,Rain,186
2010-11-14,46,42,37,34,30,27,79,66,51,29.95,29.93,29.91,10,10,10,21,14,29,0.01,5,,223
2010-11-15,50,42,30,37,31,27,85,68,60,29.98,29.94,29.91,10,10,10,15,9,,0.00,4,,192
2010-11-16,46,36,27,37,32,24,92,79,63,29.92,29.73,29.56,10,8,4,14,5,,0.01,3,Rain,38
2010-11-17,50,43,36,39,37,33,96,84,63,30.15,29.99,29.65,10,6,4,15,8,,0.03,5,,248
2010-11-18,43,36,28,40,34,24,100,84,62,30.33,30.22,30.13,10,8,2,15,6,,0.04,6,Rain,280
2010-11-19,44,32,21,35,29,20,96,79,57,30.30,30.18,30.06,10,8,5,22,8,31,0.00,1,,187
2010-11-20,48,39,30,39,34,30,100,85,48,30.30,30.23,30.13,10,5,0,10,6,,0.00,3,Fog,168
2010-11-21,57,48,39,56,46,37,100,90,72,30.23,30.06,29.95,9,4,2,20,13,26,0.01,8,Rain,163
2010-11-22,64,60,57,58,57,55,96,86,70,29.94,29.85,29.70,10,8,2,22,16,34,0.97,8,Rain-Thunderstorm,203
2010-11-23,60,42,24,57,32,21,94,78,59,30.34,30.05,29.71,10,10,7,23,16,39,0.04,4,,276
2010-11-24,34,28,21,32,26,19,92,84,72,30.37,30.15,29.85,10,9,4,23,10,30,0.07,4,Rain,113
2010-11-25,44,37,27,45,38,14,100,95,58,29.85,29.72,29.65,10,5,0,23,12,34,0.70,8,Fog-Rain,256
2010-11-26,32,26,19,22,15,10,72,63,54,29.93,29.87,29.82,10,10,10,22,18,28,0.17,2,,255
2010-11-27,30,24,19,22,20,16,92,74,64,30.22,30.05,29.84,10,10,8,20,11,24,0.01,5,,265
2010-11-28,41,30,18,28,23,15,89,76,51,30.32,30.25,30.17,10,10,9,12,6,,0.00,0,,161
2010-11-29,51,40,30,43,33,25,93,73,54,30.18,30.02,29.75,10,10,5,16,11,23,0.21,3,Rain,133
2010-11-30,53,40,28,52,38,21,100,89,75,29.83,29.72,29.61,10,9,3,30,16,38,0.28,8,Rain,218